Location: Sternwarte Stuttgart
(48.7670°N, 9.1830°E)
Time: 23:49:21
(UTC+01:00)

COSMO-SKYMED 1 - Pass Details

Date: 24 January 2019
Orbit: 621 x 624 km, 97.9° (Epoch: 19 February)

Event Time Altitude Azimuth Distance (km) Brightness Sun altitude
Rises 06:42:29 0° 208° (SSW) 2,894 5.9 -13.2°
Reaches altitude 10° 06:45:20 10° 228° (SW) 1,993 4.8 -12.8°
Maximum altitude 06:48:13 17° 270° (W) 1,575 4.0 -12.3°
Enters shadow 06:48:20 17° 272° (W) 1,576 4.0 -12.3°
